{"data":{"norad_id":61933,"intl_designator":"2024-207X","name":"STARLINK-32361","alt_names":[],"object_type":"PAYLOAD","status":"ACTIVE","operator":null,"country":"US","launch_date":"2024-11-11","launch_site_code":"AFETR","launch_vehicle":null,"mission":null,"orbit_class":"UNKNOWN","rcs_meters":null,"size_class":null,"mass_kg":null,"dimensions":null,"purposes":["comms"],"wikipedia_slug":null,"has_3d_model":false,"image_url":null,"decayed_at":null,"tle_current":{"epoch":"2026-09-21T22:48:48.218976Z","epoch_age_seconds":60305,"freshness":"FRESH","line1":"1 61933U 24207X   26264.95055809  .00011040  00000+0  40999-3 0  9997","line2":"2 61933  42.9984 253.6867 0000636 275.7119  84.3660 15.27587368104738","mean_motion":15.27587368,"eccentricity":6.36e-5,"inclination_deg":42.9984,"raan_deg":253.6867,"arg_perigee_deg":275.7119,"mean_anomaly_deg":84.366,"bstar":0.00040999,"rev_number":10473,"period_min":94.266294037592,"perigee_km":482.59066365316,"apogee_km":483.46340371825,"semimajor_km":6861.1640336857,"source":"CELESTRAK","updated_at":"2026-09-22T09:00:49.452916Z"}}}